Total_Precipitation_Accumulation
0.00 0.00 0.01 0.02 0.04 0.03 0.02 0.02 0.04 0.03 0.03 0.02 0.00 0.00 0.00 0.00 0.00 0.00 0.00 0.00 0.00 0.00 0.00 0.00 0.00 0.00 0.00 0.01 0.01 0.02 0.03 0.04 0.04 0.04 0.04 0.05 0.06 0.09 0.10 0.11 0.13 0.18 0.25 0.28
0.00 0.01 0.02 0.03 0.05 0.03 0.01 0.00 0.00 0.00 0.00 0.00 0.00 0.01 0.01 0.01 0.02 0.01 0.01 0.02 0.02 0.02 0.02 0.03 0.03 0.03 0.03 0.04 0.04 0.05 0.08 0.10 0.08 0.09 0.09 0.09 0.10 0.11 0.11 0.14 0.17 0.20 0.22 0.25
0.00 0.00 0.01 0.04 0.04 0.02 0.00 0.00 0.00 0.00 0.01 0.01 0.02 0.03 0.05 0.07 0.08 0.08 0.08 0.08 0.07 0.07 0.05 0.04 0.03 0.03 0.03 0.03 0.03 0.04 0.07 0.12 0.13 0.13 0.13 0.10 0.10 0.12 0.14 0.18 0.22 0.25 0.26 0.28
0.00 0.00 0.03 0.04 0.01 0.01 0.01 0.01 0.01 0.03 0.05 0.08 0.12 0.14 0.17 0.22 0.22 0.16 0.10 0.07 0.04 0.03 0.01 0.01 0.01 0.01 0.02 0.02 0.03 0.03 0.05 0.12 0.17 0.18 0.17 0.15 0.17 0.20 0.22 0.26 0.28 0.31 0.32 0.35
0.00 0.00 0.02 0.01 0.01 0.01 0.02 0.04 0.05 0.10 0.17 0.22 0.26 0.26 0.21 0.16 0.12 0.08 0.04 0.02 0.01 0.01 0.01 0.01 0.01 0.02 0.03 0.04 0.04 0.06 0.08 0.13 0.18 0.25 0.26 0.25 0.27 0.31 0.35 0.37 0.36 0.36 0.38 0.41
0.01 0.02 0.03 0.01 0.02 0.05 0.06 0.13 0.18 0.21 0.21 0.16 0.12 0.11 0.08 0.03 0.01 0.01 0.01 0.00 0.01 0.01 0.01 0.02 0.03 0.04 0.05 0.07 0.09 0.12 0.13 0.17 0.23 0.31 0.36 0.35 0.37 0.41 0.43 0.46 0.44 0.42 0.40 0.43
0.02 0.02 0.02 0.03 0.06 0.10 0.17 0.22 0.18 0.13 0.10 0.08 0.07 0.06 0.03 0.01 0.01 0.01 0.00 0.00 0.01 0.01 0.03 0.05 0.08 0.12 0.16 0.18 0.21 0.21 0.22 0.25 0.30 0.36 0.42 0.42 0.44 0.47 0.49 0.50 0.51 0.51 0.49 0.48
0.02 0.05 0.07 0.06 0.06 0.10 0.10 0.08 0.06 0.05 0.04 0.03 0.02 0.01 0.01 0.00 0.01 0.01 0.00 0.00 0.01 0.03 0.03 0.05 0.11 0.18 0.24 0.26 0.26 0.28 0.32 0.33 0.36 0.42 0.44 0.43 0.54 0.60 0.65 0.66 0.63 0.60 0.64 0.61
0.02 0.04 0.03 0.02 0.03 0.03 0.03 0.03 0.03 0.02 0.02 0.01 0.01 0.00 0.00 0.00 0.00 0.00 0.00 0.00 0.01 0.02 0.04 0.06 0.10 0.16 0.22 0.24 0.26 0.28 0.31 0.33 0.38 0.47 0.53 0.57 0.64 0.68 0.76 0.80 0.78 0.73 0.73 0.77
0.04 0.04 0.04 0.02 0.01 0.01 0.01 0.01 0.01 0.00 0.00 0.00 0.00 0.00 0.00 0.00 0.00 0.00 0.00 0.00 0.01 0.03 0.06 0.07 0.09 0.12 0.17 0.24 0.31 0.35 0.36 0.37 0.40 0.47 0.54 0.66 0.76 0.77 0.78 0.82 0.84 0.83 0.80 0.77
0.02 0.03 0.03 0.01 0.00 0.00 0.00 0.00 0.00 0.00 0.00 0.00 0.00 0.00 0.00 0.00 0.00 0.00 0.01 0.02 0.04 0.08 0.10 0.10 0.10 0.11 0.13 0.20 0.32 0.39 0.39 0.38 0.42 0.48 0.55 0.68 0.82 0.84 0.75 0.76 0.79 0.75 0.71 0.68
0.00 0.00 0.00 0.00 0.00 0.00 0.00 0.00 0.00 0.00 0.00 0.00 0.00 0.00 0.00 0.00 0.00 0.01 0.02 0.06 0.10 0.13 0.14 0.13 0.13 0.14 0.15 0.21 0.33 0.42 0.43 0.40 0.43 0.48 0.56 0.66 0.79 0.85 0.70 0.56 0.54 0.55 0.49 0.44
0.00 0.00 0.00 0.00 0.00 0.00 0.00 0.00 0.00 0.00 0.00 0.00 0.00 0.00 0.00 0.00 0.01 0.02 0.06 0.13 0.19 0.21 0.20 0.19 0.20 0.20 0.21 0.27 0.41 0.55 0.51 0.46 0.48 0.50 0.55 0.61 0.71 0.82 0.85 0.68 0.49 0.43 0.35 0.27
0.00 0.00 0.00 0.00 0.00 0.00 0.00 0.00 0.00 0.00 0.00 0.00 0.00 0.00 0.00 0.01 0.02 0.06 0.13 0.22 0.27 0.29 0.27 0.28 0.28 0.26 0.27 0.30 0.36 0.60 0.70 0.59 0.50 0.50 0.56 0.62 0.68 0.76 0.85 0.89 0.79 0.61 0.39 0.23
0.00 0.00 0.00 0.00 0.00 0.00 0.00 0.00 0.00 0.00 0.00 0.00 0.00 0.00 0.01 0.03 0.07 0.11 0.19 0.31 0.40 0.39 0.36 0.35 0.35 0.31 0.30 0.31 0.33 0.43 0.63 0.66 0.58 0.52 0.57 0.64 0.68 0.73 0.81 0.87 0.92 0.88 0.63 0.35
0.00 0.00 0.00 0.00 0.00 0.00 0.00 0.00 0.00 0.01 0.01 0.01 0.01 0.02 0.03 0.05 0.09 0.16 0.25 0.41 0.59 0.61 0.52 0.47 0.44 0.37 0.35 0.36 0.36 0.40 0.48 0.46 0.46 0.53 0.59 0.65 0.71 0.74 0.78 0.85 0.89 0.89 0.75 0.50
0.01 0.00 0.00 0.01 0.01 0.01 0.01 0.01 0.01 0.01 0.01 0.02 0.03 0.04 0.07 0.12 0.20 0.28 0.36 0.46 0.57 0.62 0.60 0.59 0.52 0.43 0.39 0.39 0.41 0.42 0.48 0.42 0.32 0.43 0.57 0.63 0.69 0.74 0.75 0.79 0.83 0.82 0.71 0.44
0.01 0.01 0.01 0.01 0.02 0.02 0.02 0.01 0.01 0.02 0.03 0.04 0.06 0.09 0.14 0.24 0.42 0.54 0.59 0.63 0.64 0.56 0.53 0.55 0.46 0.37 0.33 0.33 0.36 0.39 0.51 0.50 0.36 0.39 0.52 0.58 0.61 0.73 0.75 0.74 0.74 0.73 0.61 0.38
0.02 0.02 0.02 0.02 0.02 0.02 0.02 0.02 0.02 0.03 0.05 0.08 0.14 0.18 0.22 0.32 0.48 0.62 0.68 0.78 0.85 0.77 0.62 0.52 0.40 0.32 0.29 0.24 0.24 0.31 0.43 0.49 0.40 0.37 0.47 0.45 0.52 0.68 0.70 0.67 0.66 0.65 0.51 0.38
0.03 0.03 0.02 0.02 0.01 0.01 0.01 0.02 0.04 0.06 0.08 0.14 0.22 0.28 0.33 0.38 0.49 0.61 0.64 0.71 0.84 0.87 0.73 0.55 0.37 0.29 0.23 0.18 0.19 0.26 0.37 0.46 0.38 0.30 0.34 0.43 0.52 0.60 0.63 0.58 0.56 0.55 0.45 0.34
0.02 0.01 0.01 0.01 0.01 0.01 0.01 0.02 0.06 0.10 0.13 0.19 0.28 0.37 0.44 0.44 0.46 0.55 0.69 0.76 0.71 0.75 0.73 0.63 0.43 0.28 0.20 0.18 0.20 0.28 0.38 0.44 0.35 0.25 0.26 0.33 0.44 0.53 0.55 0.50 0.47 0.45 0.38 0.33
0.00 0.00 0.00 0.00 0.00 0.00 0.01 0.03 0.07 0.10 0.15 0.25 0.33 0.40 0.49 0.48 0.48 0.47 0.51 0.64 0.68 0.77 0.72 0.66 0.53 0.37 0.24 0.19 0.19 0.25 0.33 0.38 0.33 0.22 0.18 0.24 0.34 0.42 0.42 0.41 0.41 0.37 0.34 0.30
0.00 0.00 0.00 0.00 0.00 0.00 0.01 0.03 0.04 0.07 0.19 0.32 0.39 0.45 0.51 0.47 0.51 0.61 0.56 0.47 0.52 0.66 0.59 0.52 0.51 0.42 0.29 0.22 0.19 0.22 0.32 0.38 0.35 0.22 0.16 0.20 0.26 0.29 0.31 0.30 0.29 0.27 0.28 0.24
0.00 0.00 0.00 0.00 0.00 0.01 0.02 0.03 0.03 0.06 0.17 0.29 0.29 0.35 0.41 0.42 0.43 0.46 0.48 0.47 0.50 0.57 0.48 0.43 0.42 0.40 0.36 0.30 0.27 0.27 0.32 0.36 0.33 0.22 0.17 0.18 0.19 0.20 0.23 0.24 0.22 0.22 0.24 0.20
0.01 0.01 0.01 0.01 0.02 0.03 0.05 0.04 0.04 0.07 0.20 0.33 0.28 0.29 0.30 0.34 0.43 0.46 0.44 0.40 0.44 0.47 0.42 0.39 0.37 0.35 0.32 0.36 0.39 0.37 0.33 0.31 0.28 0.21 0.16 0.15 0.16 0.17 0.19 0.20 0.20 0.19 0.18 0.19
0.01 0.01 0.01 0.01 0.03 0.04 0.05 0.06 0.06 0.08 0.24 0.46 0.42 0.34 0.31 0.30 0.33 0.39 0.43 0.41 0.41 0.44 0.39 0.34 0.31 0.31 0.31 0.39 0.43 0.39 0.32 0.27 0.26 0.24 0.21 0.19 0.19 0.19 0.19 0.21 0.21 0.18 0.16 0.18
0.01 0.01 0.02 0.02 0.02 0.03 0.04 0.06 0.07 0.09 0.23 0.50 0.56 0.41 0.33 0.30 0.32 0.37 0.43 0.44 0.41 0.39 0.35 0.30 0.26 0.25 0.27 0.30 0.31 0.30 0.29 0.29 0.30 0.28 0.25 0.22 0.20 0.19 0.18 0.19 0.19 0.16 0.17 0.17